EW7512 Weather Reports


time (UTC)temp
C
wind
direction
speed
KPH
gust
KPH
rain 1hr
cm
rain 24hr
cm
rain mn
cm
humidity
%
barometer
mb
20260505140537 22 69 6.4 16.1 0.00 0.00 0.00 32 1017.2
20260505125029 22 327 12.9 25.7 0.00 0.00 0.00 30 1017.7
20260505124529 22 345 4.8 22.5 0.00 0.00 0.00 32 1017.8
20260505124028 22 360 6.4 24.1 0.00 0.00 0.00 31 1017.8
20260505123527 23 337 11.3 24.1 0.00 0.00 0.00 31 1017.8
20260505123049 23 330 3.2 14.5 0.00 0.00 0.00 31 1017.7
20260505122526 22 339 6.4 24.1 0.00 0.00 0.00 31 1017.8
20260505122026 22 20 11.3 24.1 0.00 0.00 0.00 31 1017.9
20260505121526 22 332 8.0 20.9 0.00 0.00 0.00 30 1018.0
20260505121025 22 5 4.8 20.9 0.00 0.00 0.00 32 1018.0
20260505120526 22 34 9.7 19.3 0.00 0.00 0.00 31 1018.1
20260505120028 22 18 9.7 22.5 0.00 0.00 0.00 33 1018.1
20260505115523 22 349 6.4 22.5 0.00 0.00 0.00 31 1018.2
20260505115023 22 355 6.4 22.5 0.00 0.00 0.00 31 1018.4
20260505114522 22 346 11.3 22.5 0.00 0.00 0.00 31 1018.3
20260505114022 22 9 6.4 17.7 0.00 0.00 0.00 31 1018.3
20260505113521 22 315 9.7 20.9 0.00 0.00 0.00 31 1018.3
20260505113032 22 360 4.8 20.9 0.00 0.00 0.00 32 1018.3
20260505112521 22 346 6.4 17.7 0.00 0.00 0.00 34 1018.4
20260505112021 22 22 8.0 19.3 0.00 0.00 0.00 32 1018.3
20260505111531 23 349 6.4 19.3 0.00 0.00 0.00 32 1018.4
20260505111020 22 325 8.0 27.4 0.00 0.00 0.00 32 1018.3
20260505110520 22 351 9.7 27.4 0.00 0.00 0.00 33 1018.4
20260505102018 22 360 3.2 20.9 0.00 0.00 0.00 33 1018.6
20260505101515 22 348 8.0 20.9 0.00 0.00 0.00 35 1018.5
20260505101012 21 337 3.2 17.7 0.00 0.00 0.00 38 1018.5
20260505100511 21 9 4.8 14.5 0.00 0.00 0.00 36 1018.5
20260505100013 21 315 4.8 14.5 0.00 0.00 0.00 38 1018.6
20260505095509 21 355 3.2 9.7 0.00 0.00 0.00 40 1018.7
20260505095010 21 9 3.2 9.7 0.00 0.00 0.00 41 1018.7
20260505094509 21 342 1.6 8.0 0.00 0.00 0.00 40 1018.8
20260505094009 21 246 1.6 12.9 0.00 0.00 0.00 41 1018.8
20260505093512 21 5 4.8 17.7 0.00 0.00 0.00 39 1018.9
20260505093010 21 340 8.0 17.7 0.00 0.00 0.00 36 1018.8
20260505092508 21 350 6.4 16.1 0.00 0.00 0.00 39 1018.8
20260505092007 21 31 1.6 16.1 0.00 0.00 0.00 40 1018.9
20260505091507 21 348 3.2 8.0 0.00 0.00 0.00 38 1018.9
20260505091006 21 57 1.6 8.0 0.00 0.00 0.00 38 1018.9
20260505090508 21 344 1.6 8.0 0.00 0.00 0.00 39 1018.9
20260505090006 21 84 1.6 8.0 0.00 0.00 0.00 38 1018.8
20260505085505 21 152 0.0 8.0 0.00 0.00 0.00 39 1018.9
20260505085007 21 196 1.6 8.0 0.00 0.00 0.00 42 1019.0
20260505084505 21 143 1.6 12.9 0.00 0.00 0.00 41 1018.9
20260505084003 21 173 1.6 12.9 0.00 0.00 0.00 42 1019.0
20260505083503 21 116 1.6 8.0 0.00 0.00 0.00 40 1019.0
20260505083005 21 232 1.6 11.3 0.00 0.00 0.00 41 1019.0
20260505082502 21 89 1.6 11.3 0.00 0.00 0.00 43 1019.0
20260505082001 21 333 0.0 9.7 0.00 0.00 0.00 42 1019.0
20260505081600 21 174 3.2 9.7 0.00 0.00 0.00 42 1019.0
20260505081057 20 171 1.6 12.9 0.00 0.00 0.00 45 1019.0
20260505080559 20 346 3.2 12.9 0.00 0.00 0.00 43 1018.9
20260505080057 20 28 3.2 12.9 0.00 0.00 0.00 44 1018.9
20260505075556 20 60 0.0 8.0 0.00 0.00 0.00 41 1018.9
20260505075054 20 57 3.2 8.0 0.00 0.00 0.00 42 1019.0
20260505074553 20 301 1.6 8.0 0.00 0.00 0.00 43 1019.1
20260505074051 20 330 3.2 9.7 0.00 0.00 0.00 45 1019.1
20260505073551 20 216 1.6 6.4 0.00 0.00 0.00 45 1019.1
20260505073050 20 240 1.6 6.4 0.00 0.00 0.00 45 1019.0
20260505072547 20 61 0.0 6.4 0.00 0.00 0.00 42 1019.0
20260505072047 19 61 3.2 6.4 0.00 0.00 0.00 45 1019.1
20260505071545 19 70 1.6 6.4 0.00 0.00 0.00 45 1019.0
20260505071045 19 332 1.6 6.4 0.00 0.00 0.00 48 1019.1
20260505070546 18 329 0.0 3.2 0.00 0.00 0.00 51 1019.1
20260505070048 18 303 0.0 6.4 0.00 0.00 0.00 54 1019.1
20260505065540 17 261 1.6 6.4 0.00 0.00 0.00 54 1019.1
20260505065038 17 234 1.6 6.4 0.00 0.00 0.00 55 1019.1
20260505064552 17 261 1.6 6.4 0.00 0.00 0.00 55 1019.0
20260505064035 17 194 0.0 11.3 0.00 0.00 0.00 57 1019.1
20260505063534 17 241 3.2 11.3 0.00 0.00 0.00 57 1019.0
20260505063033 17 230 3.2 6.4 0.00 0.00 0.00 57 1019.0
20260505062532 16 209 0.0 9.7 0.00 0.00 0.00 58 1019.0
20260505062030 16 262 3.2 9.7 0.00 0.00 0.00 57 1019.0
20260505061537 16 218 1.6 8.0 0.00 0.00 0.00 58 1019.0
20260505061026 16 259 0.0 4.8 0.00 0.00 0.00 57 1018.9
20260505060526 16 250 0.0 4.8 0.00 0.00 0.00 58 1018.9
20260505060030 16 242 0.0 6.4 0.00 0.00 0.00 59 1018.9
20260505055523 15 248 1.6 9.7 0.00 0.00 0.00 60 1018.8
20260505055022 15 255 3.2 9.7 0.00 0.00 0.00 61 1018.9
20260505054524 14 271 1.6 11.3 0.00 0.00 0.00 62 1018.9
20260505054022 14 234 4.8 11.3 0.00 0.00 0.00 62 1018.9
20260505053520 14 238 1.6 9.7 0.00 0.00 0.00 63 1018.8
20260505053021 14 221 3.2 9.7 0.00 0.00 0.00 64 1018.9
20260505052518 14 250 1.6 6.4 0.00 0.00 0.00 64 1018.9
20260505052017 14 195 0.0 1.6 0.00 0.00 0.00 66 1018.8
20260505051516 13 196 0.0 1.6 0.00 0.00 0.00 67 1018.8
20260505051014 13 196 0.0 1.6 0.00 0.00 0.00 68 1018.8
20260505050516 13 196 0.0 0.0 0.00 0.00 0.00 68 1018.8
20260505041613 10 200 0.0 4.8 0.00 0.00 0.00 76 1018.7
20260505041057 10 199 0.0 4.8 0.00 0.00 0.00 75 1018.6
20260505040555 10 345 0.0 3.2 0.00 0.00 0.00 77 1018.6
20260505040054 10 345 0.0 1.6 0.00 0.00 0.00 77 1018.5
20260505035554 9 345 0.0 3.2 0.00 0.00 0.00 78 1018.5
20260505035054 9 344 0.0 4.8 0.00 0.00 0.00 77 1018.6
20260505034549 9 236 0.0 4.8 0.00 0.00 0.00 77 1018.5
20260505034052 9 236 0.0 3.2 0.00 0.00 0.00 79 1018.6
20260505033548 8 236 0.0 1.6 0.00 0.00 0.00 80 1018.6
20260505033048 8 236 0.0 1.6 0.00 0.00 0.00 81 1018.6
20260505032550 8 236 0.0 1.6 0.00 0.00 0.00 81 1018.6
20260505032047 8 236 0.0 0.0 0.00 0.00 0.00 81 1018.5
20260505031553 8 235 0.0 3.2 0.00 0.00 0.00 81 1018.5
20260505031050 9 235 0.0 3.2 0.00 0.00 0.00 81 1018.5
20260505030548 8 237 0.0 3.2 0.00 0.00 0.00 82 1018.4
20260505030047 8 238 0.0 3.2 0.00 0.00 0.00 81 1018.5
20260505025547 8 238 0.0 4.8 0.00 0.00 0.00 82 1018.5
20260505025049 8 276 0.0 4.8 0.00 0.00 0.00 82 1018.6
20260505024548 8 210 0.0 3.2 0.00 0.00 0.00 82 1018.6
20260505024045 8 208 0.0 6.4 0.00 0.00 0.00 81 1018.6
20260505023545 8 208 0.0 6.4 0.00 0.00 0.00 82 1018.6
20260505023048 8 215 0.0 3.2 0.00 0.00 0.00 82 1018.6
20260505022545 8 217 0.0 4.8 0.00 0.00 0.00 82 1018.6
20260505022044 8 202 0.0 6.4 0.00 0.00 0.00 82 1018.6
20260505021546 8 94 0.0 1.6 0.00 0.00 0.00 82 1018.6
20260505021044 8 94 0.0 1.6 0.00 0.00 0.00 82 1018.6
20260505020545 8 93 0.0 1.6 0.00 0.00 0.00 82 1018.6
20260505020043 8 93 0.0 1.6 0.00 0.00 0.00 82 1018.6
20260505015546 8 92 0.0 3.2 0.00 0.00 0.00 82 1018.6
20260505015042 8 93 0.0 3.2 0.00 0.00 0.00 81 1018.7
20260505014544 8 93 0.0 3.2 0.00 0.00 0.00 81 1018.7
20260505014042 8 92 0.0 3.2 0.00 0.00 0.00 81 1018.8
20260505013541 8 93 0.0 3.2 0.00 0.00 0.00 82 1018.8
20260505013041 8 94 0.0 1.6 0.00 0.00 0.00 82 1018.8
20260505012541 8 93 0.0 3.2 0.00 0.00 0.00 82 1018.8
20260505012041 8 93 0.0 3.2 0.00 0.00 0.00 83 1018.7
20260505011541 8 84 0.0 1.6 0.00 0.00 0.00 83 1018.7
20260505011042 8 84 0.0 1.6 0.00 0.00 0.00 82 1018.7
20260505010541 8 84 0.0 1.6 0.00 0.00 0.00 82 1018.8
20260505010043 8 84 0.0 1.6 0.00 0.00 0.00 82 1018.7
20260505005539 8 84 0.0 1.6 0.00 0.00 0.00 83 1018.8
20260505005039 8 84 0.0 0.0 0.00 0.00 0.00 83 1018.9
20260505004538 8 84 0.0 1.6 0.00 0.00 0.00 83 1018.9
20260505004037 8 84 0.0 0.0 0.00 0.00 0.00 83 1019.0
20260505003538 8 84 0.0 1.6 0.00 0.00 0.00 83 1018.9
20260505003038 8 84 0.0 3.2 0.00 0.00 0.00 84 1019.0
20260505002539 8 84 0.0 3.2 0.00 0.00 0.00 84 1019.0
20260505002037 8 84 0.0 1.6 0.00 0.00 0.00 84 1019.0
20260505001547 8 84 0.0 1.6 0.00 0.00 0.00 84 1019.0
20260505001035 8 84 0.0 3.2 0.00 0.00 0.00 84 1019.1
20260505000535 8 84 0.0 3.2 0.00 0.00 0.00 85 1019.1
20260505000041 8 83 0.0 1.6 0.00 0.00 0.00 84 1019.1
20260504235535 8 84 0.0 0.0 0.00 0.00 0.00 84 1019.2
20260504235036 8 83 0.0 0.0 0.00 0.00 0.00 84 1019.2
20260504234534 8 83 0.0 0.0 0.00 0.00 0.00 84 1019.2
20260504234033 8 83 0.0 0.0 0.00 0.00 0.00 84 1019.2
20260504233533 8 84 0.0 0.0 0.00 0.00 0.00 84 1019.3
20260504233035 8 84 0.0 0.0 0.00 0.00 0.00 83 1019.2
20260504232533 8 84 0.0 0.0 0.00 0.00 0.00 83 1019.3
20260504232032 8 83 0.0 1.6 0.00 0.00 0.00 83 1019.4
20260504231543 8 83 0.0 1.6 0.00 0.00 0.00 84 1019.4
20260504231032 8 84 0.0 1.6 0.00 0.00 0.00 83 1019.5
20260504230530 8 83 0.0 1.6 0.00 0.00 0.00 82 1019.6
20260504230030 8 84 0.0 1.6 0.00 0.00 0.00 82 1019.6
20260504225531 8 83 0.0 0.0 0.00 0.00 0.00 82 1019.6
20260504225029 8 83 0.0 0.0 0.00 0.00 0.00 82 1019.6
20260504224528 8 84 0.0 0.0 0.00 0.00 0.00 81 1019.7
20260504224030 8 84 0.0 0.0 0.00 0.00 0.00 81 1019.7
20260504223529 8 83 0.0 1.6 0.00 0.00 0.00 81 1019.7
20260504223026 8 84 0.0 3.2 0.00 0.00 0.00 80 1019.8
20260504222525 8 84 0.0 3.2 0.00 0.00 0.00 80 1019.8
20260504222024 8 83 0.0 1.6 0.00 0.00 0.00 80 1019.8
20260504221524 8 83 0.0 1.6 0.00 0.00 0.00 79 1019.8
20260504221024 8 83 0.0 1.6 0.00 0.00 0.00 79 1019.8
20260504220523 8 84 0.0 1.6 0.00 0.00 0.00 79 1019.9
20260504220023 8 84 0.0 1.6 0.00 0.00 0.00 78 1019.9
20260504215522 8 84 0.0 4.8 0.00 0.00 0.00 78 1019.9
20260504215026 8 123 0.0 1.6 0.00 0.00 0.00 77 1019.9
20260504214520 9 123 0.0 1.6 0.00 0.00 0.00 77 1020.0
20260504214023 9 123 0.0 3.2 0.00 0.00 0.00 76 1019.9
20260504213521 9 123 0.0 3.2 0.00 0.00 0.00 75 1019.9
20260504213020 9 123 0.0 1.6 0.00 0.00 0.00 75 1019.9
20260504212518 9 123 0.0 1.6 0.00 0.00 0.00 74 1020.0
20260504212017 9 124 0.0 1.6 0.00 0.00 0.00 74 1020.0
20260504211517 9 123 0.0 1.6 0.00 0.00 0.00 72 1020.1
20260504211016 9 123 0.0 0.0 0.00 0.00 0.00 71 1020.1
20260504210515 9 123 0.0 1.6 0.00 0.00 0.00 70 1020.2
20260504210015 9 123 0.0 1.6 0.00 0.00 0.00 69 1020.2
20260504205515 9 123 0.0 1.6 0.00 0.00 0.00 67 1020.1
20260504205014 9 123 0.0 0.0 0.00 0.00 0.00 65 1020.2
20260504204516 9 123 0.0 1.6 0.00 0.00 0.00 64 1020.2
20260504204014 9 123 0.0 1.6 0.00 0.00 0.00 63 1020.2
20260504203514 10 123 0.0 1.6 0.00 0.00 0.00 62 1020.3
20260504203021 10 127 0.0 1.6 0.00 0.00 0.00 60 1020.3
20260504202514 10 204 0.0 0.0 0.00 0.00 0.00 60 1020.3
20260504202013 10 360 0.0 0.0 0.00 0.00 0.00 58 1020.3
20260504201513 10 205 0.0 0.0 0.00 0.00 0.00 57 1020.3
20260504201013 10 204 0.0 1.6 0.00 0.00 0.00 57 1020.3
20260504200514 10 204 0.0 3.2 0.00 0.00 0.00 55 1020.5
20260504200014 10 205 0.0 3.2 0.00 0.00 0.00 54 1020.4
20260504195513 10 206 0.0 1.6 0.00 0.00 0.00 53 1020.4
20260504195014 10 205 0.0 1.6 0.00 0.00 0.00 53 1020.4
20260504194525 10 360 0.0 3.2 0.00 0.00 0.00 54 1020.4
20260504194012 11 360 0.0 6.4 0.00 0.00 0.00 54 1020.4
20260504193512 11 360 1.6 6.4 0.00 0.00 0.00 52 1020.5
20260504193016 11 324 0.0 0.0 0.00 0.00 0.00 49 1020.4
20260504192511 11 323 0.0 0.0 0.00 0.00 0.00 48 1020.4
20260504192011 11 324 0.0 1.6 0.00 0.00 0.00 49 1020.4
20260504191513 11 325 0.0 1.6 0.00 0.00 0.00 49 1020.3
20260504191013 11 325 0.0 1.6 0.00 0.00 0.00 50 1020.4
20260504190512 11 360 0.0 1.6 0.00 0.00 0.00 49 1020.3
20260504190011 11 360 0.0 1.6 0.00 0.00 0.00 49 1020.3
20260504185513 11 325 0.0 1.6 0.00 0.00 0.00 49 1020.3
20260504185011 11 319 0.0 0.0 0.00 0.00 0.00 49 1020.2
20260504184512 12 320 0.0 1.6 0.00 0.00 0.00 49 1020.1
20260504184011 12 319 0.0 3.2 0.00 0.00 0.00 46 1020.0
20260504183511 12 320 0.0 3.2 0.00 0.00 0.00 47 1020.1
20260504183010 12 319 0.0 0.0 0.00 0.00 0.00 47 1020.1
20260504182510 12 360 0.0 3.2 0.00 0.00 0.00 46 1020.0
20260504182010 12 360 0.0 3.2 0.00 0.00 0.00 46 1019.9
20260504181510 12 360 0.0 3.2 0.00 0.00 0.00 47 1019.9
20260504181015 12 360 0.0 4.8 0.00 0.00 0.00 46 1019.8
20260504180510 12 360 0.0 6.4 0.00 0.00 0.00 46 1019.8
20260504180014 12 360 1.6 6.4 0.00 0.00 0.00 45 1019.8
20260504175509 12 360 0.0 4.8 0.00 0.00 0.00 45 1019.8
20260504175009 12 317 0.0 4.8 0.00 0.00 0.00 45 1019.8
20260504174509 12 360 0.0 4.8 0.00 0.00 0.00 45 1019.9
20260504174009 12 287 0.0 3.2 0.00 0.00 0.00 45 1019.9
20260504173508 13 288 0.0 3.2 0.00 0.00 0.00 44 1019.8
20260504173014 13 288 0.0 4.8 0.00 0.00 0.00 43 1019.9
20260504172508 13 317 0.0 11.3 0.00 0.00 0.00 44 1019.9
20260504172008 13 317 3.2 11.3 0.00 0.00 0.00 43 1019.9
20260504171507 13 297 1.6 6.4 0.00 0.00 0.00 44 1019.8
20260504171012 13 309 1.6 6.4 0.00 0.00 0.00 43 1019.8
20260504170506 13 325 1.6 11.3 0.00 0.00 0.00 43 1019.8
20260504151002 15 244 11.3 25.7 0.00 0.00 0.00 37 1019.9
20260504150502 16 351 6.4 20.9 0.00 0.00 0.00 37 1019.9